When you browse on this site, cookies collect data to enhance your experience and personalize the content and advertising you see.
Visit our Privacy Policy to learn more. By continuing to use the site, you agree to this use of cookies and data.
  • In Switzerland
  • List of Countries
  • For 7 days
  • Water Temperature
  • Satellite Maps
  • Weather Map
  • Weather Widgets
  • user-avatar
    Login

    Hourly Weather Korçe

    Today, 25 March, Monday

    Time Temperature Precipitation Wind Pressure Humidity
    00:00 +7°C° 0 mm 0 mps 666 mmHg 60%
    01:00 +6°C° 0 mm 0 mps 666 mmHg 60%
    02:00 +6°C° 0 mm 0 mps 666 mmHg 61%
    03:00 +6°C° 0 mm 0 mps 666 mmHg 61%
    04:00 +5°C° 0 mm 0 mps 665 mmHg 61%
    05:00 +6°C° 0 mm 0 mps 665 mmHg 60%
    06:00 +7°C° 0 mm 0 mps 666 mmHg 59%
    07:00 +8°C° 0 mm 0 mps 666 mmHg 57%
    08:00 +11°C° 0 mm 1 mps 666 mmHg 52%
    09:00 +12°C° 0 mm 1 mps 666 mmHg 46%
    10:00 +14°C° 0 mm 2 mps 666 mmHg 41%
    11:00 +15°C° 0 mm 2 mps 666 mmHg 39%
    12:00 +15°C° 0 mm 2 mps 666 mmHg 37%
    13:00 +16°C° 0 mm 3 mps 666 mmHg 36%
    14:00 +14°C° 0 mm 3 mps 665 mmHg 38%
    15:00 +14°C° 0 mm 3 mps 664 mmHg 40%
    16:00 +13°C° 0 mm 3 mps 664 mmHg 43%
    17:00 +12°C° 0 mm 2 mps 663 mmHg 50%
    18:00 +9°C° 0 mm 2 mps 663 mmHg 57%
    19:00 +8°C° 0 mm 1 mps 662 mmHg 65%
    20:00 +8°C° 0 mm 1 mps 662 mmHg 67%
    21:00 +7°C° 0 mm 1 mps 661 mmHg 70%
    22:00 +5°C° 0 mm 0 mps 661 mmHg 73%
    23:00 +5°C° 0 mm 0 mps 661 mmHg 73%

    Tomorrow, 26 March, Tuesday

    Time Temperature Precipitation Wind Pressure Humidity
    00:00 +6°C° 0 mm 1 mps 661 mmHg 74%
    01:00 +5°C° 0 mm 1 mps 661 mmHg 75%
    02:00 +4°C° 0 mm 0 mps 661 mmHg 74%
    03:00 +4°C° 0 mm 0 mps 660 mmHg 73%
    04:00 +4°C° 0 mm 0 mps 660 mmHg 72%
    05:00 +5°C° 0 mm 0 mps 661 mmHg 69%
    06:00 +6°C° 0 mm 0 mps 661 mmHg 66%
    07:00 +6°C° 0 mm 0 mps 661 mmHg 63%
    08:00 +8°C° 0 mm 0 mps 662 mmHg 57%
    09:00 +10°C° 0 mm 0 mps 663 mmHg 51%
    10:00 +12°C° 0 mm 0 mps 663 mmHg 45%
    11:00 +13°C° 0.1 mm 1 mps 663 mmHg 44%
    12:00 +14°C° 0.1 mm 1 mps 664 mmHg 43%
    13:00 +15°C° 0.1 mm 1 mps 664 mmHg 42%
    14:00 +14°C° 0.9 mm 1 mps 663 mmHg 47%
    15:00 +13°C° 0.9 mm 2 mps 663 mmHg 53%
    16:00 +10°C° 0.9 mm 2 mps 663 mmHg 59%
    17:00 +10°C° 0.9 mm 2 mps 663 mmHg 65%
    18:00 +9°C° 0.9 mm 2 mps 663 mmHg 72%
    19:00 +8°C° 0.9 mm 2 mps 664 mmHg 78%
    20:00 +7°C° 0.2 mm 2 mps 664 mmHg 78%
    21:00 +7°C° 0.2 mm 2 mps 664 mmHg 79%
    22:00 +6°C° 0.2 mm 2 mps 665 mmHg 79%
    23:00 +6°C° 0 mm 2 mps 665 mmHg 79%

    Day after tomorrow, 27 March, Wednesday

    Time Temperature Precipitation Wind Pressure Humidity
    00:00 +5°C° 0 mm 2 mps 665 mmHg 79%
    01:00 +5°C° 0 mm 2 mps 665 mmHg 79%
    02:00 +4°C° 0.1 mm 2 mps 665 mmHg 79%
    03:00 +4°C° 0.1 mm 2 mps 665 mmHg 78%
    04:00 +4°C° 0.1 mm 2 mps 665 mmHg 78%
    05:00 +4°C° 0.1 mm 2 mps 665 mmHg 78%
    06:00 +4°C° 0.1 mm 2 mps 665 mmHg 77%
    07:00 +4°C° 0.1 mm 2 mps 666 mmHg 77%
    08:00 +5°C° 0 mm 2 mps 666 mmHg 73%
    09:00 +5°C° 0 mm 3 mps 666 mmHg 69%
    10:00 +8°C° 0 mm 3 mps 667 mmHg 66%
    11:00 +8°C° 0.1 mm 3 mps 667 mmHg 64%
    12:00 +8°C° 0.1 mm 3 mps 667 mmHg 62%
    13:00 +9°C° 0.1 mm 3 mps 667 mmHg 60%
    14:00 +8°C° 0.3 mm 2 mps 667 mmHg 63%
    15:00 +8°C° 0.3 mm 2 mps 666 mmHg 65%
    16:00 +7°C° 0.3 mm 2 mps 666 mmHg 68%
    17:00 +7°C° 0.2 mm 2 mps 666 mmHg 72%
    18:00 +6°C° 0.2 mm 2 mps 666 mmHg 76%
    19:00 +5°C° 0.2 mm 2 mps 666 mmHg 80%
    20:00 +5°C° 0.2 mm 2 mps 666 mmHg 81%
    21:00 +4°C° 0.2 mm 2 mps 666 mmHg 81%
    22:00 +4°C° 0.2 mm 2 mps 666 mmHg 81%
    23:00 +4°C° 0 mm 2 mps 666 mmHg 81%

    28 March, Thursday

    Time Temperature Precipitation Wind Pressure Humidity
    00:00 +3°C° 0 mm 2 mps 666 mmHg 81%
    01:00 +2°C° 0 mm 3 mps 666 mmHg 80%
    02:00 +2°C° 0.1 mm 3 mps 666 mmHg 80%
    03:00 +1°C° 0.1 mm 3 mps 665 mmHg 80%
    04:00 +1°C° 0.1 mm 3 mps 665 mmHg 80%
    05:00 +1°C° 0.1 mm 3 mps 666 mmHg 80%
    06:00 +1°C° 0.1 mm 3 mps 666 mmHg 79%
    07:00 +1°C° 0.1 mm 3 mps 666 mmHg 79%
    08:00 +1°C° 0.1 mm 4 mps 667 mmHg 75%
    09:00 +3°C° 0.1 mm 4 mps 667 mmHg 71%
    10:00 +4°C° 0.1 mm 4 mps 667 mmHg 67%
    11:00 +4°C° 0 mm 4 mps 667 mmHg 65%
    12:00 +5°C° 0 mm 4 mps 667 mmHg 63%
    13:00 +5°C° 0 mm 4 mps 668 mmHg 60%
    14:00 +5°C° 0 mm 4 mps 667 mmHg 60%
    15:00 +5°C° 0 mm 4 mps 667 mmHg 60%
    16:00 +5°C° 0 mm 4 mps 667 mmHg 59%
    17:00 +4°C° 0 mm 3 mps 667 mmHg 64%
    18:00 +3°C° 0 mm 3 mps 667 mmHg 70%
    19:00 +2°C° 0 mm 2 mps 667 mmHg 75%
    20:00 +2°C° 0 mm 2 mps 668 mmHg 77%
    21:00 +2°C° 0 mm 2 mps 668 mmHg 78%
    22:00 +2°C° 0 mm 2 mps 668 mmHg 80%
    23:00 +1°C° 0 mm 2 mps 668 mmHg 81%

    29 March, Friday

    Time Temperature Precipitation Wind Pressure Humidity
    00:00 +1°C° 0 mm 2 mps 668 mmHg 82%
    01:00 +1°C° 0 mm 2 mps 668 mmHg 83%
    02:00 -1°C° 0 mm 2 mps 668 mmHg 82%
    03:00 -1°C° 0 mm 2 mps 668 mmHg 80%
    04:00 -1°C° 0 mm 2 mps 668 mmHg 79%
    05:00 -1°C° 0 mm 2 mps 669 mmHg 73%
    06:00 -1°C° 0 mm 3 mps 669 mmHg 68%
    07:00 0°C° 0 mm 3 mps 669 mmHg 62%
    08:00 +1°C° 0 mm 3 mps 670 mmHg 54%
    09:00 +3°C° 0 mm 3 mps 670 mmHg 46%
    10:00 +4°C° 0 mm 3 mps 671 mmHg 38%
    11:00 +5°C° 0 mm 3 mps 671 mmHg 37%
    12:00 +5°C° 0 mm 3 mps 670 mmHg 35%
    13:00 +7°C° 0 mm 3 mps 670 mmHg 34%
    14:00 +7°C° 0 mm 3 mps 670 mmHg 35%
    15:00 +6°C° 0 mm 4 mps 670 mmHg 36%
    16:00 +5°C° 0 mm 4 mps 669 mmHg 37%
    17:00 +4°C° 0 mm 3 mps 669 mmHg 42%
    18:00 +2°C° 0 mm 3 mps 669 mmHg 48%
    19:00 +1°C° 0 mm 2 mps 669 mmHg 53%
    20:00 +1°C° 0 mm 2 mps 669 mmHg 54%
    21:00 -1°C° 0 mm 2 mps 669 mmHg 55%
    22:00 -1°C° 0 mm 2 mps 669 mmHg 56%
    23:00 -1°C° 0 mm 2 mps 669 mmHg 57%

    30 March, Saturday

    Time Temperature Precipitation Wind Pressure Humidity
    00:00 -2°C° 0 mm 2 mps 669 mmHg 58%
    01:00 -2°C° 0 mm 2 mps 669 mmHg 58%
    02:00 -2°C° 0 mm 2 mps 669 mmHg 59%
    03:00 -2°C° 0 mm 2 mps 668 mmHg 59%
    04:00 -3°C° 0 mm 2 mps 668 mmHg 59%
    05:00 -2°C° 0 mm 2 mps 669 mmHg 56%
    06:00 -1°C° 0 mm 2 mps 669 mmHg 52%
    07:00 +1°C° 0 mm 2 mps 669 mmHg 49%
    08:00 +3°C° 0 mm 2 mps 670 mmHg 45%
    09:00 +4°C° 0 mm 3 mps 670 mmHg 40%
    10:00 +5°C° 0 mm 3 mps 670 mmHg 36%
    11:00 +7°C° 0 mm 3 mps 670 mmHg 35%
    12:00 +8°C° 0 mm 3 mps 670 mmHg 34%
    13:00 +8°C° 0 mm 4 mps 670 mmHg 33%
    14:00 +8°C° 0 mm 4 mps 669 mmHg 35%
    15:00 +8°C° 0 mm 4 mps 669 mmHg 37%
    16:00 +8°C° 0 mm 4 mps 669 mmHg 39%
    17:00 +7°C° 0 mm 3 mps 668 mmHg 45%
    18:00 +4°C° 0 mm 3 mps 668 mmHg 52%
    19:00 +4°C° 0 mm 2 mps 668 mmHg 59%
    20:00 +3°C° 0 mm 2 mps 668 mmHg 60%
    21:00 +3°C° 0 mm 2 mps 668 mmHg 62%
    22:00 +2°C° 0 mm 2 mps 668 mmHg 63%
    23:00 +2°C° 0 mm 2 mps 668 mmHg 64%
    Show more